Waarnemingen

Advertentie
Mijn weer
Kvarn, Zweden (2561): temperatuur & dauwpunt: 19.05.2019 21:00:00 - 25.05.2019 21:00:00 (CEST)Kvarn, Zweden (2561): windsnelheid & windstoten: 19.05.2019 21:00:00 - 25.05.2019 21:00:00 (CEST)Kvarn, Zweden (2561): windrichting: 19.05.2019 21:00:00 - 25.05.2019 21:00:00 (CEST)Kvarn, Zweden (2561): luchtdruk: 19.05.2019 21:00:00 - 25.05.2019 21:00:00 (CEST)Kvarn, Zweden (2561): zicht: 19.05.2019 21:00:00 - 25.05.2019 21:00:00 (CEST)Kvarn, Zweden (2561): neerslag: 19.05.2019 21:00:00 - 25.05.2019 21:00:00 (CEST)
Datum & Tijd tt [°C] td [°C] ff [km/u] ff [kn] fx [km/u] fx [kn] dd ppp [hPa] vv [km] rr [mm]
25.05.2019 21:00:00 11,5 11,5 0 0 14 8 N 1005,0 18 0,9
25.05.2019 20:00:00 13,8 9,6 7 4 14 8 ZZW 1005,7 35 0,0
25.05.2019 19:00:00 15,0 8,9 4 2 14 8 ZW 1005,6 45 0,1
25.05.2019 18:00:00 16,5 7,7 7 4 18 10 ZW 1005,7 45 0,0
25.05.2019 17:00:00 17,2 7,3 11 6 18 10 ZW 1006,1 40 0,0
25.05.2019 16:00:00 17,1 9,3 7 4 11 6 NNW 1006,3 40 0,0
25.05.2019 15:00:00 15,9 8,6 4 2 18 10 N 1006,8 45 0,0
25.05.2019 14:00:00 15,4 8,9 7 4 18 10 WNW 1006,9 40 0,0
25.05.2019 13:00:00 15,4 9,3 7 4 22 12 W 1006,9 40 0,0
25.05.2019 12:00:00 14,3 9,1 7 4 18 10 W 1006,8 45 0,0
25.05.2019 11:00:00 12,5 9,9 7 4 14 8 W 1006,8 45 0,0
25.05.2019 10:00:00 11,8 9,0 7 4 22 12 WNW 1006,2 45 0,0
25.05.2019 09:00:00 12,4 9,9 7 4 14 8 NW 1005,7 40 0,0
25.05.2019 08:00:00 10,8 10,3 4 2 14 8 WNW 1005,4 45 0,0
25.05.2019 07:00:00 10,1 9,9 7 4 18 10 W 1005,0 45 0,0
25.05.2019 06:00:00 9,5 9,5 4 2 14 8 W 1004,6 45 0,0
25.05.2019 05:00:00 8,9 8,9 4 2 14 8 WZW 1004,3 50 0,0
25.05.2019 04:00:00 8,6 8,6 4 2 14 8 W 1003,9 50 0,0
25.05.2019 03:00:00 8,3 8,3 4 2 11 6 W 1003,9 45 0,0
25.05.2019 02:00:00 8,0 8,0 4 2 11 6 W 1004,1 50 0,0
25.05.2019 01:00:00 7,5 7,5 4 2 11 6 WZW 1003,9 50 0,0
25.05.2019 00:00:00 7,3 7,3 4 2 7 4 ZW 1003,8 45 0,0
24.05.2019 23:00:00 7,5 7,5 4 2 11 6 ZW 1003,8 50 0,0
24.05.2019 22:00:00 8,1 8,0 4 2 11 6 ZZW 1003,9 35 0,0
24.05.2019 21:00:00 8,6 8,5 4 2 11 6 ZZW 1003,9 45 0,0
24.05.2019 20:00:00 10,0 9,2 4 2 14 8 ZW 1003,8 45 0,0
24.05.2019 19:00:00 11,1 10,6 7 4 14 8 ZW 1003,8 40 0,8
24.05.2019 18:00:00 11,3 10,8 4 2 22 12 ZZW 1004,0 45 0,4
24.05.2019 17:00:00 10,5 10,0 7 4 18 10 ZW 1004,6 13 0,8
24.05.2019 16:00:00 12,1 11,8 7 4 18 10 ZZO 1004,8 30 0,1
24.05.2019 15:00:00 11,3 11,1 4 2 14 8 ZZO 1005,8 18 1,0
24.05.2019 14:00:00 11,1 10,8 7 4 14 8 ZZW 1006,5 12 0,9
24.05.2019 13:00:00 11,4 10,9 0 0 14 8 N 1006,7 12 2,0
24.05.2019 12:00:00 13,4 7,4 7 4 29 16 W 1006,9 35 0,0
24.05.2019 11:00:00 15,8 6,8 11 6 29 16 WZW 1007,1 30 0,0
24.05.2019 10:00:00 15,5 7,5 7 4 25 14 ZZW 1007,2 40 0,0
24.05.2019 09:00:00 15,0 7,3 11 6 22 12 ZW 1007,8 30 0,0
24.05.2019 08:00:00 13,1 10,5 11 6 22 12 ZZW 1008,2 28 0,0
24.05.2019 07:00:00 11,2 10,4 4 2 14 8 ZZW 1008,5 30 0,0
24.05.2019 06:00:00 6,7 6,7 0 0 7 4 N 1009,2 22 0,0
24.05.2019 05:00:00 6,1 6,1 0 0 4 2 N 1009,7 23 0,0
24.05.2019 04:00:00 6,0 6,0 0 0 4 2 N 1010,2 17 0,0
24.05.2019 03:00:00 6,6 6,6 0 0 4 2 N 1010,8 40 0,0
24.05.2019 02:00:00 7,2 7,2 0 0 4 2 N 1011,2 35 0,0
24.05.2019 01:00:00 8,2 - 0 0 4 2 N - 40 0,0
24.05.2019 00:00:00 8,4 8,4 0 0 0 0 N 1012,0 45 0,0
23.05.2019 23:00:00 8,8 8,5 0 0 0 0 N - 50 0,0
23.05.2019 22:00:00 9,9 9,3 0 0 4 2 N - 45 0,0
23.05.2019 21:00:00 12,4 9,8 0 0 7 4 N 1012,1 50 0,0
23.05.2019 20:00:00 15,8 8,3 4 2 11 6 WZW 1012,2 45 0,0
23.05.2019 19:00:00 16,3 7,8 4 2 22 12 WNW 1012,1 45 0,0
23.05.2019 18:00:00 16,7 7,3 7 4 25 14 W 1012,4 40 0,0
23.05.2019 17:00:00 16,4 7,6 11 6 25 14 W 1012,8 35 0,0
23.05.2019 16:00:00 16,4 8,4 11 6 25 14 W - 30 0,0
23.05.2019 15:00:00 15,8 8,3 11 6 25 14 W 1013,2 30 0,0
23.05.2019 14:00:00 15,7 8,0 11 6 25 14 WNW 1013,4 30 0,0
23.05.2019 13:00:00 14,9 7,9 11 6 25 14 W 1013,4 30 0,0
23.05.2019 12:00:00 14,1 7,8 11 6 25 14 W 1013,3 30 0,0
23.05.2019 11:00:00 12,1 7,8 11 6 25 14 W 1013,2 40 0,0
23.05.2019 10:00:00 - - - - - - - - - -
23.05.2019 09:00:00 10,3 10,0 4 2 11 6 W 1013,2 30 0,0
23.05.2019 08:00:00 9,7 9,6 4 2 14 8 ZW 1013,1 30 0,0
23.05.2019 07:00:00 9,8 9,8 7 4 18 10 WNW 1012,2 25 0,0
23.05.2019 06:00:00 9,8 9,8 7 4 22 12 W 1012,0 24 1,0
23.05.2019 05:00:00 10,5 10,5 7 4 18 10 NW 1012,0 9 3,0
23.05.2019 04:00:00 11,2 11,2 7 4 18 10 W 1011,7 16 0,0
23.05.2019 03:00:00 12,7 12,7 7 4 22 12 W 1011,3 5 2,0
23.05.2019 02:00:00 14,4 14,4 11 6 25 14 W 1011,1 7 0,1
23.05.2019 01:00:00 14,8 14,8 0 0 7 4 N 1010,6 2,7 0,0
23.05.2019 00:00:00 14,9 14,9 4 2 7 4 WZW 1010,8 9 0,7
22.05.2019 23:00:00 14,8 14,8 0 0 4 2 N 1010,6 13 0,0
22.05.2019 22:00:00 14,8 14,8 0 0 18 10 N 1009,6 9 0,0
22.05.2019 21:00:00 16,8 15,8 11 6 22 12 W 1010,6 21 0,1
22.05.2019 20:00:00 18,5 13,8 4 2 22 12 ZZW 1009,6 45 0,0
22.05.2019 19:00:00 19,6 12,6 11 6 25 14 ZW 1009,2 35 0,0
22.05.2019 18:00:00 25,6 14,7 7 4 22 12 ZO 1007,9 35 0,0
22.05.2019 17:00:00 26,7 14,1 7 4 18 10 OZO - 30 0,0
22.05.2019 16:00:00 26,4 14,5 7 4 18 10 ZO 1008,2 30 0,0
22.05.2019 15:00:00 26,1 15,5 4 2 14 8 O 1008,6 30 0,0
22.05.2019 14:00:00 24,4 14,8 4 2 14 8 O 1009,1 35 0,0
22.05.2019 13:00:00 25,5 16,1 4 2 18 10 O 1009,4 26 0,0
22.05.2019 12:00:00 23,9 16,2 4 2 14 8 N 1009,7 30 0,0
22.05.2019 11:00:00 22,2 15,3 4 2 14 8 NNO 1010,1 35 0,0
22.05.2019 10:00:00 20,3 15,1 4 2 11 6 NO 1010,1 35 0,0
22.05.2019 09:00:00 17,3 14,9 4 2 7 4 NO 1010,1 30 0,0
22.05.2019 08:00:00 15,7 14,6 4 2 7 4 NO 1010,4 30 0,0
22.05.2019 07:00:00 13,1 13,1 0 0 4 2 N - 18 0,0
22.05.2019 06:00:00 9,4 9,4 0 0 0 0 N 1010,6 7 0,0
22.05.2019 05:00:00 8,8 8,8 0 0 4 2 N 1010,3 1,6 0,0
22.05.2019 04:00:00 9,1 9,1 0 0 4 2 N 1010,3 3,4 0,0
22.05.2019 03:00:00 10,0 10,0 0 0 4 2 N 1010,0 2,1 0,0
22.05.2019 02:00:00 10,9 10,9 0 0 4 2 N 1010,3 8 0,0
22.05.2019 01:00:00 11,8 11,8 0 0 7 4 N 1010,5 11 0,0
22.05.2019 00:00:00 13,1 12,8 0 0 7 4 N 1010,5 22 0,0
21.05.2019 23:00:00 14,2 13,7 0 0 7 4 N 1010,4 27 0,0
21.05.2019 22:00:00 15,2 14,2 0 0 11 6 N 1010,2 35 0,0
21.05.2019 21:00:00 17,7 14,8 7 4 22 12 O 1009,7 35 0,0
21.05.2019 20:00:00 20,3 15,7 7 4 22 12 O 1009,2 30 0,0
21.05.2019 19:00:00 21,9 16,0 7 4 22 12 O - 40 0,0
21.05.2019 18:00:00 22,8 15,9 7 4 22 12 ONO 1008,9 35 0,0
21.05.2019 17:00:00 23,4 16,2 7 4 25 14 O 1009,1 40 0,0
21.05.2019 16:00:00 23,1 15,9 7 4 22 12 O 1009,6 30 0,0
21.05.2019 15:00:00 23,0 16,3 7 4 18 10 O 1009,6 35 0,0
21.05.2019 14:00:00 23,0 16,8 4 2 14 8 NO 1009,6 40 0,0
21.05.2019 13:00:00 20,5 16,7 4 2 11 6 N 1009,6 35 0,1
21.05.2019 12:00:00 20,5 15,9 4 2 14 8 NO 1009,5 45 0,0
21.05.2019 11:00:00 21,2 15,3 4 2 14 8 NO 1009,4 35 0,0
21.05.2019 10:00:00 20,6 15,4 7 4 14 8 NO 1009,4 30 0,0
21.05.2019 09:00:00 17,6 15,0 4 2 14 8 ONO 1009,7 30 0,0
21.05.2019 08:00:00 17,3 14,4 7 4 14 8 ONO 1009,6 35 0,0
21.05.2019 07:00:00 14,8 14,3 4 2 11 6 NNO 1009,5 30 0,0
21.05.2019 06:00:00 13,2 13,2 0 0 7 4 N 1009,4 19 0,0
21.05.2019 05:00:00 12,5 12,5 0 0 7 4 N 1009,4 9 0,0
21.05.2019 04:00:00 12,4 12,4 0 0 7 4 N 1009,3 7 0,0
21.05.2019 03:00:00 12,2 12,2 4 2 7 4 NO 1009,7 9 0,1
21.05.2019 02:00:00 11,2 11,2 0 0 0 0 N 1010,0 4,8 0,0
21.05.2019 01:00:00 11,4 11,4 0 0 4 2 N 1010,3 2,9 0,0
21.05.2019 00:00:00 12,7 12,7 0 0 7 4 N 1010,4 11 0,0
20.05.2019 23:00:00 13,9 13,6 0 0 7 4 N 1010,3 25 0,0
20.05.2019 22:00:00 15,3 14,5 0 0 11 6 N 1009,8 35 0,0
20.05.2019 21:00:00 17,7 15,1 4 2 18 10 ONO 1009,9 35 0,0
20.05.2019 20:00:00 20,2 15,6 7 4 18 10 O 1009,3 40 0,0
20.05.2019 19:00:00 22,0 16,0 7 4 18 10 O 1008,8 40 0,0
20.05.2019 18:00:00 21,9 15,7 7 4 18 10 OZO 1008,8 40 0,0
20.05.2019 17:00:00 21,9 15,7 7 4 22 12 OZO 1008,9 35 0,0
20.05.2019 16:00:00 21,8 15,9 7 4 22 12 OZO 1009,1 40 0,0
20.05.2019 15:00:00 23,0 16,1 11 6 25 14 OZO 1009,2 30 0,0
20.05.2019 14:00:00 22,6 16,2 7 4 22 12 OZO 1009,3 40 0,0
20.05.2019 13:00:00 22,2 16,2 11 6 22 12 OZO 1009,2 30 0,0
20.05.2019 12:00:00 20,4 15,0 7 4 18 10 OZO 1009,4 35 0,0
20.05.2019 11:00:00 18,3 14,0 7 4 14 8 O 1009,4 35 0,0
20.05.2019 10:00:00 16,7 14,0 4 2 11 6 O 1009,6 35 0,0
20.05.2019 09:00:00 15,2 14,2 4 2 11 6 ONO 1009,6 30 0,0
20.05.2019 08:00:00 14,3 14,1 4 2 11 6 O 1009,4 25 0,0
20.05.2019 07:00:00 13,8 13,8 4 2 11 6 N 1009,6 16 0,0
20.05.2019 06:00:00 13,9 13,9 4 2 11 6 N 1010,1 15 0,0
20.05.2019 05:00:00 13,7 13,7 4 2 7 4 N 1010,4 11 0,0
20.05.2019 04:00:00 13,5 13,5 0 0 11 6 N 1010,6 5 0,0
20.05.2019 03:00:00 13,8 13,8 4 2 7 4 N 1011,3 6 0,0
20.05.2019 02:00:00 13,9 13,9 4 2 7 4 NO 1012,0 4,5 0,0
20.05.2019 01:00:00 14,2 14,2 0 0 7 4 N 1012,2 5 0,5
20.05.2019 00:00:00 14,7 14,7 4 2 7 4 W 1013,3 5 0,6
19.05.2019 23:00:00 15,1 14,9 0 0 7 4 N 1013,1 19 0,0
19.05.2019 22:00:00 16,1 15,3 0 0 11 6 N 1012,9 30 0,1
19.05.2019 21:00:00 17,4 15,2 4 2 11 6 O 1012,9 29 0,0

tt = temperatuur
td = dauwpunt
ff = windsnelheid
fx = windstoten
dd = windrichting
ppp = luchtdruk
vv = zicht
rr = neerslag

Weerstations in de omgeving